When you browse on this site, cookies collect data to enhance your experience and personalize the content and advertising you see.
Visit our Privacy Policy to learn more. By continuing to use the site, you agree to this use of cookies and data.
  • In Hungary
  • List of Countries
  • For 7 days
  • Water Temperature
  • Satellite Maps
  • Weather Map
  • News
  • Weather Widgets
  • user-avatar
    Login

    Hourly Weather Zalese 2

    Today, 18 January, Friday

    Time Temperature Precipitation Wind Pressure Humidity
    00:00 -2°C° 0 mm 6 mps 731 mmHg 88%
    01:00 -2°C° 0 mm 6 mps 732 mmHg 88%
    02:00 -1°C° 0 mm 5 mps 732 mmHg 88%
    03:00 -1°C° 0 mm 5 mps 732 mmHg 89%
    04:00 -1°C° 0 mm 5 mps 732 mmHg 89%
    05:00 -1°C° 0 mm 5 mps 733 mmHg 89%
    06:00 -2°C° 0 mm 5 mps 733 mmHg 90%
    07:00 -2°C° 0 mm 4 mps 733 mmHg 90%
    08:00 -2°C° 0 mm 4 mps 733 mmHg 90%
    09:00 -2°C° 0.2 mm 4 mps 732 mmHg 91%
    10:00 -1°C° 0.2 mm 4 mps 732 mmHg 93%
    11:00 -1°C° 0.2 mm 4 mps 732 mmHg 95%
    12:00 -1°C° 0.4 mm 4 mps 732 mmHg 94%
    13:00 -1°C° 0.4 mm 4 mps 732 mmHg 93%
    14:00 -1°C° 0.4 mm 5 mps 732 mmHg 92%
    15:00 -4°C° 0.8 mm 6 mps 733 mmHg 92%
    16:00 -6°C° 0.8 mm 6 mps 733 mmHg 91%
    17:00 -9°C° 0.8 mm 7 mps 734 mmHg 91%
    18:00 -9°C° 0.1 mm 6 mps 735 mmHg 90%
    19:00 -10°C° 0.1 mm 5 mps 736 mmHg 89%
    20:00 -9°C° 0.1 mm 4 mps 737 mmHg 87%
    21:00 -10°C° 0 mm 4 mps 738 mmHg 89%
    22:00 -9°C° 0 mm 3 mps 739 mmHg 90%
    23:00 -10°C° 0 mm 3 mps 739 mmHg 92%

    Tomorrow, 19 January, Saturday

    Time Temperature Precipitation Wind Pressure Humidity
    00:00 -10°C° 0 mm 4 mps 740 mmHg 92%
    01:00 -10°C° 0 mm 4 mps 740 mmHg 92%
    02:00 -10°C° 0 mm 4 mps 741 mmHg 93%
    03:00 -10°C° 0 mm 4 mps 741 mmHg 92%
    04:00 -10°C° 0 mm 4 mps 741 mmHg 91%
    05:00 -10°C° 0 mm 4 mps 741 mmHg 91%
    06:00 -10°C° 0 mm 4 mps 741 mmHg 91%
    07:00 -10°C° 0 mm 4 mps 742 mmHg 92%
    08:00 -9°C° 0 mm 4 mps 742 mmHg 92%
    09:00 -9°C° 0 mm 4 mps 742 mmHg 91%
    10:00 -8°C° 0 mm 4 mps 743 mmHg 90%
    11:00 -7°C° 0 mm 5 mps 743 mmHg 89%
    12:00 -7°C° 0 mm 4 mps 743 mmHg 89%
    13:00 -7°C° 0 mm 4 mps 744 mmHg 88%
    14:00 -5°C° 0 mm 4 mps 744 mmHg 87%
    15:00 -7°C° 0 mm 4 mps 744 mmHg 89%
    16:00 -6°C° 0 mm 3 mps 744 mmHg 90%
    17:00 -7°C° 0 mm 3 mps 744 mmHg 92%
    18:00 -7°C° 0 mm 3 mps 744 mmHg 92%
    19:00 -7°C° 0 mm 3 mps 745 mmHg 93%
    20:00 -7°C° 0 mm 3 mps 745 mmHg 93%
    21:00 -6°C° 0 mm 3 mps 745 mmHg 93%
    22:00 -6°C° 0 mm 3 mps 745 mmHg 93%
    23:00 -7°C° 0 mm 4 mps 745 mmHg 93%

    Day after tomorrow, 20 January, Sunday

    Time Temperature Precipitation Wind Pressure Humidity
    00:00 -7°C° 0 mm 4 mps 745 mmHg 92%
    01:00 -5°C° 0 mm 4 mps 745 mmHg 91%
    02:00 -5°C° 0 mm 4 mps 745 mmHg 90%
    03:00 -5°C° 0 mm 4 mps 744 mmHg 90%
    04:00 -6°C° 0 mm 5 mps 744 mmHg 90%
    05:00 -6°C° 0 mm 5 mps 743 mmHg 90%
    06:00 -6°C° 0 mm 5 mps 743 mmHg 90%
    07:00 -6°C° 0 mm 5 mps 743 mmHg 89%
    08:00 -5°C° 0 mm 5 mps 743 mmHg 89%
    09:00 -5°C° 0 mm 6 mps 743 mmHg 88%
    10:00 -5°C° 0 mm 6 mps 743 mmHg 87%
    11:00 -5°C° 0 mm 6 mps 743 mmHg 87%
    12:00 -5°C° 0 mm 6 mps 743 mmHg 87%
    13:00 -6°C° 0 mm 6 mps 742 mmHg 88%
    14:00 -6°C° 0 mm 6 mps 742 mmHg 88%
    15:00 -6°C° 0.3 mm 5 mps 742 mmHg 90%
    16:00 -5°C° 0.3 mm 4 mps 742 mmHg 92%
    17:00 -5°C° 0.3 mm 3 mps 742 mmHg 94%
    18:00 -6°C° 0.2 mm 3 mps 742 mmHg 94%
    19:00 -5°C° 0.2 mm 2 mps 742 mmHg 94%
    20:00 -6°C° 0.2 mm 2 mps 742 mmHg 94%
    21:00 -8°C° 0 mm 2 mps 743 mmHg 93%
    22:00 -9°C° 0 mm 2 mps 743 mmHg 93%
    23:00 -10°C° 0 mm 2 mps 743 mmHg 93%

    21 January, Monday

    Time Temperature Precipitation Wind Pressure Humidity
    00:00 -12°C° 0 mm 2 mps 743 mmHg 94%
    01:00 -12°C° 0 mm 2 mps 743 mmHg 95%
    02:00 -13°C° 0 mm 2 mps 744 mmHg 95%
    03:00 -13°C° 0 mm 2 mps 744 mmHg 96%
    04:00 -13°C° 0 mm 2 mps 744 mmHg 96%
    05:00 -14°C° 0 mm 2 mps 744 mmHg 97%
    06:00 -14°C° 0 mm 2 mps 744 mmHg 97%
    07:00 -14°C° 0 mm 2 mps 745 mmHg 97%
    08:00 -15°C° 0 mm 2 mps 745 mmHg 97%
    09:00 -13°C° 0 mm 2 mps 745 mmHg 95%
    10:00 -13°C° 0 mm 3 mps 746 mmHg 94%
    11:00 -12°C° 0 mm 3 mps 746 mmHg 93%
    12:00 -11°C° 0 mm 4 mps 746 mmHg 92%
    13:00 -10°C° 0 mm 4 mps 746 mmHg 92%
    14:00 -9°C° 0 mm 4 mps 746 mmHg 92%
    15:00 -9°C° 0 mm 4 mps 746 mmHg 91%
    16:00 -9°C° 0 mm 4 mps 747 mmHg 90%
    17:00 -8°C° 0 mm 3 mps 747 mmHg 89%
    18:00 -9°C° 0 mm 3 mps 747 mmHg 91%
    19:00 -10°C° 0 mm 3 mps 747 mmHg 93%
    20:00 -12°C° 0 mm 3 mps 747 mmHg 94%
    21:00 -12°C° 0 mm 3 mps 747 mmHg 94%
    22:00 -13°C° 0 mm 3 mps 747 mmHg 94%
    23:00 -13°C° 0 mm 3 mps 747 mmHg 95%

    22 January, Tuesday

    Time Temperature Precipitation Wind Pressure Humidity
    00:00 -13°C° 0 mm 3 mps 747 mmHg 94%
    01:00 -13°C° 0 mm 3 mps 747 mmHg 94%
    02:00 -13°C° 0 mm 3 mps 747 mmHg 94%
    03:00 -13°C° 0 mm 3 mps 747 mmHg 93%
    04:00 -12°C° 0 mm 3 mps 746 mmHg 92%
    05:00 -12°C° 0 mm 3 mps 746 mmHg 91%
    06:00 -12°C° 0 mm 3 mps 745 mmHg 91%
    07:00 -11°C° 0 mm 4 mps 745 mmHg 90%
    08:00 -11°C° 0 mm 4 mps 744 mmHg 90%
    09:00 -10°C° 0.1 mm 4 mps 744 mmHg 90%
    10:00 -10°C° 0.1 mm 5 mps 744 mmHg 90%
    11:00 -8°C° 0.1 mm 5 mps 743 mmHg 90%
    12:00 -7°C° 0.4 mm 5 mps 743 mmHg 90%
    13:00 -7°C° 0.4 mm 5 mps 743 mmHg 90%
    14:00 -6°C° 0.4 mm 5 mps 743 mmHg 89%
    15:00 -6°C° 0.1 mm 5 mps 742 mmHg 90%
    16:00 -5°C° 0.1 mm 4 mps 742 mmHg 90%
    17:00 -5°C° 0.1 mm 4 mps 742 mmHg 91%
    18:00 -6°C° 0 mm 3 mps 742 mmHg 92%
    19:00 -6°C° 0 mm 3 mps 742 mmHg 93%
    20:00 -6°C° 0 mm 3 mps 742 mmHg 93%
    21:00 -7°C° 0 mm 3 mps 742 mmHg 94%
    22:00 -6°C° 0 mm 2 mps 742 mmHg 95%
    23:00 -6°C° 0 mm 2 mps 742 mmHg 95%

    23 January, Wednesday

    Time Temperature Precipitation Wind Pressure Humidity
    00:00 -7°C° 0 mm 2 mps 742 mmHg 96%
    01:00 -7°C° 0 mm 2 mps 742 mmHg 96%
    02:00 -7°C° 0 mm 2 mps 742 mmHg 96%
    03:00 -8°C° 0 mm 2 mps 742 mmHg 96%
    04:00 -9°C° 0 mm 2 mps 742 mmHg 95%
    05:00 -10°C° 0 mm 2 mps 742 mmHg 95%
    06:00 -10°C° 0 mm 2 mps 742 mmHg 94%
    07:00 -12°C° 0 mm 2 mps 742 mmHg 94%
    08:00 -13°C° 0 mm 2 mps 742 mmHg 93%
    09:00 -12°C° 0 mm 2 mps 742 mmHg 92%
    10:00 -12°C° 0 mm 2 mps 742 mmHg 91%
    11:00 -12°C° 0 mm 2 mps 742 mmHg 90%
    12:00 -10°C° 0 mm 2 mps 742 mmHg 90%
    13:00 -10°C° 0 mm 2 mps 742 mmHg 91%
    14:00 -10°C° 0 mm 2 mps 742 mmHg 92%
    15:00 -12°C° 0 mm 2 mps 742 mmHg 93%
    16:00 -13°C° 0 mm 2 mps 742 mmHg 95%
    17:00 -14°C° 0 mm 2 mps 742 mmHg 96%
    18:00 -13°C° 0 mm 2 mps 742 mmHg 96%
    19:00 -12°C° 0 mm 2 mps 742 mmHg 96%
    20:00 -12°C° 0 mm 2 mps 742 mmHg 96%
    21:00 -10°C° 0 mm 2 mps 742 mmHg 96%
    22:00 -10°C° 0 mm 2 mps 742 mmHg 96%
    23:00 -9°C° 0 mm 2 mps 742 mmHg 95%
    Show more